Location: Santa Barbara
(34.4500°N, 119.7700°W)
Time: 17:45:28
(UTC-07:00)

N. Korean satellite - Visible Passes

Search period start: 19 March 2019 00:00
Search period end: 29 March 2019 00:00
Orbit: 455 x 510 km, 97.2° (Epoch: 18 March)

Date Brightness Start Highest point End Pass type
(mag) Time Alt. Az. Time Alt. Az. Time Alt. Az.
20 Mar 9.6 06:25:33 10° NE 06:28:20 22° E 06:31:09 10° SSE visible
21 Mar 10.6 06:03:10 10° E 06:03:24 10° E 06:03:37 10° E visible
24 Mar 9.8 06:19:53 10° NE 06:22:27 19° E 06:25:03 10° SE visible
28 Mar 9.9 06:14:14 10° NE 06:16:32 16° E 06:18:50 10° SE visible
